Terminal Aerodrome Forecast
Issued by NWS

Home | Current Version | Previous Version | Text Only | Print | Product List | Glossary On
Versions: 1 2 3 4 5 6 7 8 9 10 11 12 13 14 15 16 17 18 19 20 21 22 23 24 25 26 27 28 29 30 31 32
000
FTUS41 KBUF 280900 AAB
TAFJHW
TAF AMD
KJHW 280932Z 2810/2906 00000KT P6SM FEW025
     FM281100 34008KT P6SM BKN025
     FM281500 33008KT P6SM SCT040
     FM282200 33007KT P6SM SCT250
      AMD LTD TO CLD VIS AND WIND=

USA.gov is the U.S. government's official web portal to all federal, state and local government web resources and services.